STARLINK-1007 (44713 NORAD) Tracking and Keplerian Element Data

This shows tracking and keplerian element data for the satellite.

Feedback or suggestion? Click here.




ElementValue
Catalog44713
NameSTARLINK-1007
Epoch Orbit1066
Epoch Day18.25002315
Epoch Year2020
RAAN194.2118
Inclination53.0067
Eccentricity0.0002767
Argument of Perigee20.5544
Mean Anonmoly4.3361
Mean Motion15.73156543
Decay Rate0.00321967
L11 44713U 19074A 20018.25002315 .00321967 00000-0 22152-2 0 9991
L22 44713 53.0067 194.2118 0002767 20.5544 4.3361 15.73156543 10660

Live tracking and technical data element details for STARLINK-1007 (NORAD 44713). STARLINK-1007 can be tracked NOW for your location showing map with azimuth and elevation plus other details from your city location.

Track the satellite on the map from your city or location and see movement details for azimuth, elevation, latitude, longitude, range, height, and movement on the map or in text.







IsCatalogInMostPopularTable: catalog: 44713, numindb: 11
Update: records affected: 1



GetName: 44713 STARLINK-1007

Hit Count: updated at: Sat, 18 Jan 2020 18:14:45 GMT